Zurück zum Katalog

DELTA 1 DEB

AktivSSO
NORAD 7053·DEBRIS·🇺🇸 United States

Gestartet Nov 6, 1973 von Vandenberg Space Force Base

Loading…

Nächste Überflüge (nächste 24 Stunden)

TLE

AktuellSource: Space-Track

Epoche: Sep 14, 2026, 03:39 UTC

1 07053U 73086AV  26257.15232770 -.00000047  00000-0 -22619-4 0  9995
2 07053 101.7413 330.5655 0047559 134.4449 339.2273 12.48626154405344

Verfolge DELTA 1 DEB in Echtzeit mit AllMySat

Download on the App Store